Regional Weather Roundup
Issued by NWS

Home | Current Version | Previous Version | Text Only | Print | Product List | Glossary Off
Versions: 1 2 3 4 5 6 7 8 9 10 11 12 13 14 15 16 17 18 19 20 21 22 23 24 25 26 27 28 29 30 31 32 33 34 35 36 37 38 39 40 41 42 43 44 45 46 47 48 49 50

000
ASUS43 KBIS 212110
RWRND

NORTH DAKOTA REGIONAL WEATHER ROUNDUP
NATIONAL WEATHER SERVICE BISMARCK ND
300 PM CST SUN DEC 21 2014

NOTE: "FAIR" INDICATES FEW OR NO CLOUDS BELOW 12,000 FEET WITH NO
SIGNIFICANT WEATHER AND/OR OBSTRUCTIONS TO VISIBILITY.


NDZ001>003-009>011-017-212200-
NORTHWEST NORTH DAKOTA

CITY           SKY/WX    TMP DP  RH WIND       PRES   REMARKS
WILLISTON      CLOUDY    36  27  69 S6        29.33F
MINOT          CLOUDY    37  31  78 SE8       29.39F
MINOT AFB      CLOUDY    34  34 100 E9        29.39F
$$

NDZ018>021-031>035-040>046-212200-
SOUTHWEST NORTH DAKOTA

CITY           SKY/WX    TMP DP  RH WIND       PRES   REMARKS
BISMARCK       SUNNY     38  29  70 SE8       29.43F
DICKINSON      CLOUDY    43  28  55 S10       29.33F
GARRISON         N/A     37  31  78 E7        29.39F
HETTINGER ARPT CLOUDY    41  27  57 SW5       29.38F
$$

NDZ004>008-012>016-024-026-027-054-212200-
NORTHEAST NORTH DAKOTA

CITY           SKY/WX    TMP DP  RH WIND       PRES   REMARKS
GRAND FORKS    CLOUDY    32  30  92 S18       29.59F FOG
GRND FRKS AFB  CLOUDY    31  31 100 S16       29.59S
DEVILS LAKE    CLOUDY    30  25  80 SE12      29.49F
$$

NDZ022-023-025-028>030-036>039-047>053-212200-
SOUTHEAST NORTH DAKOTA

CITY           SKY/WX    TMP DP  RH WIND       PRES   REMARKS
FARGO          CLOUDY    34  30  85 SE13G25   29.59F FOG
JAMESTOWN      CLOUDY    32  30  92 SE13      29.51F FOG
$$




USA.gov is the U.S. government's official web portal to all federal, state and local government web resources and services.